Location: Invercargill
(46.4000°S, 168.3500°E)
Time: 22:59:12
(UTC+12:00)

SR - All Passes

Search period start: 23 July 2019 00:00
Search period end: 02 August 2019 00:00
Orbit: 580 x 876 km, 66.7° (Epoch: 22 July)

Date Brightness Start Highest point End Pass type
(mag) Time Alt. Az. Time Alt. Az. Time Alt. Az.
23 Jul - 07:23:06 10° NE 07:26:27 16° ENE 07:29:47 10° ESE visible
23 Jul - 09:01:57 10° NNW 09:07:51 86° ENE 09:13:33 10° SE daylight
23 Jul - 10:46:01 10° W 10:50:38 24° SW 10:55:04 10° SSE daylight
23 Jul - 15:59:46 10° SSW 16:03:51 23° SE 16:07:40 10° E daylight
23 Jul - 17:41:29 10° SW 17:46:30 69° WNW 17:51:01 10° NNE daylight
24 Jul - 08:12:38 10° N 08:18:18 49° ENE 08:23:45 10° SE daylight
24 Jul - 09:55:13 10° WNW 10:00:35 36° SW 10:05:44 10° SSE daylight
24 Jul - 11:42:07 10° SW 11:44:18 12° SSW 11:46:26 10° S daylight
24 Jul - 15:10:34 10° S 15:13:38 15° SSE 15:16:33 10° ESE daylight
24 Jul - 16:51:49 10° SSW 16:56:51 62° SE 17:01:25 10° NE daylight
24 Jul - 18:35:01 10° WSW 18:38:18 18° WNW 18:41:25 10° NNW visible
25 Jul - 07:24:01 10° NNE 07:28:54 27° ENE 07:33:37 10° SE visible
25 Jul - 09:04:55 10° NW 09:10:43 59° SW 09:16:16 10° SSE daylight
25 Jul - 10:50:18 10° WSW 10:53:56 17° SSW 10:57:28 10° S daylight
25 Jul - 14:21:44 10° S 14:23:15 11° SSE 14:24:44 10° SE daylight
25 Jul - 16:02:19 10° SSW 16:07:00 35° SE 16:11:17 10° ENE daylight
25 Jul - 17:44:33 10° SW 17:49:04 36° WNW 17:53:13 10° N daylight
26 Jul - 06:36:33 10° NE 06:39:39 15° ENE 06:42:43 10° ESE visible
26 Jul - 08:15:07 10° NNW 08:21:01 82° ENE 08:26:40 10° SE daylight
26 Jul - 09:59:03 10° W 10:03:44 24° SW 10:08:14 10° SSE daylight
26 Jul - 15:12:58 10° SSW 15:16:56 22° SE 15:20:39 10° E daylight
26 Jul - 16:54:38 10° SW 16:59:38 73° WNW 17:04:09 10° NNE daylight
27 Jul - 07:25:52 10° N 07:31:28 47° ENE 07:36:51 10° SE visible
27 Jul - 09:08:18 10° WNW 09:13:43 37° SW 09:18:52 10° SSE daylight
27 Jul - 10:55:05 10° SW 10:57:22 12° SSW 10:59:37 10° S daylight
27 Jul - 14:23:48 10° S 14:26:42 15° SSE 14:29:29 10° ESE daylight
27 Jul - 16:04:58 10° SSW 16:09:58 59° SE 16:14:30 10° NE daylight
27 Jul - 17:48:05 10° WSW 17:51:29 19° WNW 17:54:41 10° NNW daylight
28 Jul - 06:37:19 10° NNE 06:42:04 26° ENE 06:46:42 10° SE visible
28 Jul - 08:18:03 10° NW 08:23:52 62° SW 08:29:24 10° SSE daylight
28 Jul - 10:03:20 10° WSW 10:07:02 17° SSW 10:10:36 10° S daylight
28 Jul - 13:35:06 10° S 13:36:19 11° SSE 13:37:29 10° SSE daylight
28 Jul - 15:15:30 10° SSW 15:20:05 33° SE 15:24:19 10° ENE daylight
28 Jul - 16:57:40 10° SW 17:02:13 38° WNW 17:06:24 10° N daylight
29 Jul - 05:50:01 10° NE 05:52:51 14° ENE 05:55:38 10° ESE visible
29 Jul - 07:28:17 10° NNW 07:34:10 79° ENE 07:39:47 10° SE visible
29 Jul - 09:12:07 10° W 09:16:51 25° SW 09:21:22 10° SSE daylight
29 Jul - 14:26:10 10° SSW 14:30:01 21° SE 14:33:38 10° E daylight
29 Jul - 16:07:47 10° SW 16:12:45 78° WNW 16:17:16 10° NNE daylight
30 Jul - 06:39:06 10° N 06:44:38 44° ENE 06:49:57 10° SE visible
30 Jul - 08:21:24 10° WNW 08:26:50 39° SW 08:32:01 10° SSE daylight
30 Jul - 10:08:04 10° SW 10:10:27 13° SSW 10:12:46 10° S daylight
30 Jul - 13:37:02 10° S 13:39:46 14° SSE 13:42:24 10° ESE daylight
30 Jul - 15:18:08 10° SSW 15:23:04 56° SE 15:27:34 10° NE daylight
30 Jul - 17:01:08 10° WSW 17:04:38 20° WNW 17:07:57 10° NNW daylight
31 Jul - 05:50:37 10° NNE 05:55:15 25° ENE 05:59:44 10° ESE visible
31 Jul - 07:31:10 10° NW 07:36:59 65° SW 07:42:32 10° SSE visible
31 Jul - 09:16:20 10° WSW 09:20:07 18° SSW 09:23:45 10° S daylight
31 Jul - 12:48:34 10° S 12:49:22 10° SSE 12:50:09 10° SSE daylight
31 Jul - 14:28:41 10° SSW 14:33:11 32° SE 14:37:21 10° ENE daylight
31 Jul - 16:10:47 10° SW 16:15:21 40° WNW 16:19:34 10° N daylight
01 Aug - 05:03:31 10° NE 05:06:02 13° ENE 05:08:31 10° ESE visible
01 Aug - 06:41:28 10° NNW 06:47:19 75° ENE 06:52:54 10° SE visible
01 Aug - 08:25:10 10° W 08:29:57 26° SW 08:34:31 10° SSE daylight
01 Aug - 13:39:22 10° SSW 13:43:06 20° SE 13:46:37 10° E daylight
01 Aug - 15:20:55 10° SW 15:25:53 82° WNW 15:30:23 10° NNE daylight
01 Aug - 17:06:46 10° W 17:06:54 10° WNW 17:07:03 10° WNW daylight
